Gran Canaria > ESTACION METEOROLÓGICA Aeropuerto Gran Canaria

DATOS ACTUALES Online

Ultima actulizacion 1 h 3 minutos

20.4 ºC

Temperatura

69

Humedad (%)

1017.2

Presión (mb)

0

Precipitación (mm)

5.8 N

Viento (Km/h)

DATOS DIARIOS

Temperatura últimas 24 horas (ºC)

Humedad últimas 24 horas (%)

Presión atmosférica últimas 24 horas (mb)

Precipitaciones últimas 23 horas (mm)

Viento últimas 24 horas (Km/h)

Hora Temperatura (°C) ºC Precipitación (mm) mm Presión (mb) mb Humedad (%) % Viento (Km/h) km/h
29 - 01:00 19.4 0 1018 71 7.6 N
29 - 02:00 19.3 0 1018 72 5.9 N
29 - 03:00 19.3 0 1017 70 5.1 N
29 - 04:00 19.1 0 1017 70 4.4 N
29 - 05:00 19.3 0 1016 70 5 N
29 - 06:00 19.3 0 1016 72 3.8 N
29 - 07:00 18.7 0 1017 68 1.6 NW
29 - 08:00 19.7 0 1017 62 2.7 N
29 - 09:00 20.4 0 1018 60 3.7 NO
29 - 10:00 20.9 0 1018 63 3.6 NO
29 - 11:00 21.7 0 1018 61 3.6 NO
29 - 12:00 22.7 0 1017 57 4.3 O
29 - 13:00 23 0 1017 54 5.2 NO
29 - 14:00 23.4 0 1017 56 5.8 NO
29 - 15:00 22.9 0 1017 60 5.3 NO
29 - 16:00 22.3 0 1017 62 6.3 NO
29 - 17:00 22.2 0 1017 65 5.1 NO
29 - 18:00 22.1 0 1016 61 8.8 N
29 - 19:00 21.9 0 1016 60 8.6 N
29 - 20:00 21.7 0 1016 59 7.3 N
29 - 21:00 21.3 0 1016 63 7.8 N
29 - 22:00 21.1 0 1017 64 6.5 N
29 - 23:00 20.8 0 1017 64 5.6 N
30 - 00:00 20.4 0 1017 69 5.8 N
30 - 01:00
Apalmet utiliza cookies propias y de terceros para mejorar la usabilidad y la experiencia web. Política de cookies.